User: anonymous   Login
Location: Bismarck
(46.7731°N, 100.8200°W)
Time: 11:45:30
(UTC-05:00)
Language:

Landsat 7 - Orbit

View from above orbital plane
View from above orbital plane
View from above satellite
View from above satellite

Ground track
Ground track

The orbit data is extracted from the following two-line orbital elements,

1 25682U 99020A   14298.14843570  .00000586  00000-0  14008-3 0  7385
2 25682 098.2260 006.0679 0001004 064.8907 295.2436 14.57105004825912
Epoch (UTC): 25 October 2014 03:33:44
Eccentricity: 0.0001004
inclination: 98.2260°
perigee height: 702 km
apogee height: 703 km
right ascension of ascending node: 6.0679°
argument of perigee: 64.8907°
revolutions per day: 14.57105004
mean anomaly at epoch: 295.2436°
orbit number at epoch: 82591

The dashed part of the orbit path shows where the satellite is in the earth's shadow,  

DLR